Kandersteg, метеограме

Kandersteg: време по сату
Четвтак, 06 Аугуста
Време Падавине Температура Осећа се Притисак Влажност Ветар
11:00 0 мм +18.4° +17.7° 623.000 мм.ж.с 43% 1 м/с, С
12:00 0 мм +19.2° +18.6° 623.000 мм.ж.с 42% 1 м/с, С
13:00 0 мм +20.1° +19.5° 623.000 мм.ж.с 41% 1 м/с, С
14:00 0 мм +20° +19.5° 623.000 мм.ж.с 44% 2 м/с, С
15:00 0 мм +19.8° +19.5° 623.000 мм.ж.с 47% 2 м/с, С
16:00 0 мм +19.7° +19.4° 623.000 мм.ж.с 50% 2 м/с, С
17:00 0 мм +17.9° +18.2° 622.000 мм.ж.с 62% 1 м/с, С
18:00 0 мм +16.2° +16.8° 622.000 мм.ж.с 74% 1 м/с, С
19:00 0 мм +14.5° +15.3° 621.000 мм.ж.с 85% 1 м/с, С
20:00 0 мм +13° +13.7° 621.000 мм.ж.с 88% 1 м/с, СИ
21:00 0 мм +11.4° +12.1° 620.000 мм.ж.с 90% 1 м/с, ЈИ
22:00 0 мм +9.9° +10.4° 620.000 мм.ж.с 92% 1 м/с, ЈИ
23:00 0 мм +9.7° +10.1° 620.000 мм.ж.с 90% 1 м/с, ЈИ
Петак, 07 Аугуста
Време Падавине Температура Осећа се Притисак Влажност Ветар
00:00 0 мм +9.5° +9.8° 620.000 мм.ж.с 87% 1 м/с, Ј
01:00 0 мм +9.3° +9.6° 620.000 мм.ж.с 85% 1 м/с, Ј
02:00 0 мм +9.1° +9.3° 620.000 мм.ж.с 83% 1 м/с, Ј
03:00 0 мм +8.9° +9.1° 620.000 мм.ж.с 81% 1 м/с, Ј
04:00 0 мм +8.7° +8.8° 619.000 мм.ж.с 79% 1 м/с, Ј
05:00 0 мм +10.3° +10.4° 620.000 мм.ж.с 76% 1 м/с, Ј
06:00 0 мм +11.9° +12.1° 621.000 мм.ж.с 73% 1 м/с, Ј
07:00 0 мм +13.5° +13.7° 622.000 мм.ж.с 70% 0 м/с, ЈИ
08:00 0 мм +15.5° +15.5° 623.000 мм.ж.с 62% 1 м/с, Ј
09:00 0 мм +17.4° +17.2° 623.000 мм.ж.с 53% 1 м/с, СЗ
10:00 0 мм +19.4° +18.9° 624.000 мм.ж.с 45% 1 м/с, СЗ
11:00 0 мм +20.1° +19.6° 624.000 мм.ж.с 44% 1 м/с, СЗ
12:00 0 мм +20.8° +20.3° 624.000 мм.ж.с 43% 1 м/с, СЗ
13:00 0 мм +21.5° +21° 624.000 мм.ж.с 41% 2 м/с, СЗ
14:00 0.01 мм +21.3° +20.9° 624.000 мм.ж.с 44% 2 м/с, СЗ
15:00 0.01 мм +21° +20.8° 624.000 мм.ж.с 47% 2 м/с, СЗ
16:00 0.01 мм +20.8° +20.7° 624.000 мм.ж.с 50% 2 м/с, СЗ
17:00 0.04 мм +19.1° +19.4° 623.000 мм.ж.с 60% 1 м/с, СЗ
18:00 0.04 мм +17.5° +18.1° 622.000 мм.ж.с 70% 1 м/с, С
19:00 0.04 мм +15.9° +16.6° 622.000 мм.ж.с 80% 1 м/с, С
20:00 0 мм +14.3° +15° 622.000 мм.ж.с 81% 1 м/с, СИ
21:00 0 мм +12.8° +13.3° 621.000 мм.ж.с 82% 1 м/с, ЈИ
22:00 0 мм +11.3° +11.7° 621.000 мм.ж.с 84% 1 м/с, Ј
23:00 0 мм +11.1° +11.4° 621.000 мм.ж.с 82% 1 м/с, Ј
Субота, 08 Аугуста
Време Падавине Температура Осећа се Притисак Влажност Ветар
00:00 0 мм +10.9° +11.2° 621.000 мм.ж.с 80% 1 м/с, Ј
01:00 0 мм +10.8° +11° 621.000 мм.ж.с 78% 1 м/с, Ј
02:00 0 мм +10.6° +10.6° 621.000 мм.ж.с 75% 1 м/с, Ј
03:00 0 мм +10.4° +10.4° 621.000 мм.ж.с 73% 1 м/с, Ј
04:00 0 мм +10.1° +10.1° 620.000 мм.ж.с 70% 1 м/с, Ј
05:00 0 мм +11.5° +11.5° 621.000 мм.ж.с 69% 1 м/с, Ј
06:00 0 мм +12.9° +12.9° 622.000 мм.ж.с 68% 1 м/с, Ј
07:00 0 мм +14.2° +14.3° 622.000 мм.ж.с 66% 1 м/с, Ј
08:00 0 мм +16.3° +16.2° 623.000 мм.ж.с 58% 1 м/с, ЈЗ
09:00 0 мм +18.4° +18° 624.000 мм.ж.с 50% 1 м/с, СЗ
10:00 0 мм +20.4° +19.8° 624.000 мм.ж.с 42% 1 м/с, СЗ

Такође

Meteograms hourly weather Мапе времена Преглед времена
Meteograms hourly weather Мапе времена Преглед времена
 
Време у Србији:
О проjекту
© meteoprog.rs 2003-2020.
Meteoprog.ua - погода в Украине 0.1018
sitemap